PRLMT SBBE-SBSL

Flight info

Callsign PRLMT
Flight time N/A
Altitude 13500
Route ITAKI UZ81 SAVIO
Aircraft E110/L-SDFGHRY/S

Departure

Time 2026-05-06 21:49
Airport Val de Cans/Júlio Cezar Ribeiro International Airport (SBBE)

Arrival

Time N/A
Airport Marechal Cunha Machado International Airport (SBSL)
Time Latitude Longitude Altitude Speed Heading
2026-05-06 21:36 -1.38724 -48.48097 40 ft 0 kts 179°
2026-05-06 21:41 -1.38720 -48.48097 40 ft 2 kts 179°
2026-05-06 21:42 -1.38707 -48.48097 41 ft 2 kts 181°
2026-05-06 21:42 -1.38693 -48.48096 41 ft 2 kts 186°
2026-05-06 21:42 -1.38683 -48.48094 41 ft 1 kts 200°
2026-05-06 21:42 -1.38678 -48.48091 41 ft 1 kts 224°
2026-05-06 21:43 -1.38675 -48.48086 41 ft 1 kts 253°
2026-05-06 21:43 -1.38674 -48.48081 41 ft 1 kts 267°
2026-05-06 21:43 -1.38674 -48.48078 41 ft 0 kts 269°
2026-05-06 21:44 -1.38674 -48.48088 41 ft 3 kts 270°
2026-05-06 21:44 -1.38674 -48.48126 41 ft 8 kts 270°
2026-05-06 21:44 -1.38691 -48.48174 42 ft 8 kts 286°
2026-05-06 21:44 -1.38689 -48.48231 42 ft 10 kts 229°
2026-05-06 21:45 -1.38745 -48.48291 41 ft 14 kts 226°
2026-05-06 21:45 -1.38814 -48.48370 41 ft 13 kts 255°
2026-05-06 21:45 -1.38815 -48.48389 41 ft 4 kts 268°
2026-05-06 21:45 -1.38816 -48.48409 41 ft 6 kts 267°
2026-05-06 21:46 -1.38804 -48.48465 40 ft 10 kts 316°
2026-05-06 21:46 -1.38753 -48.48446 40 ft 0 kts 43°
2026-05-06 21:48 -1.38698 -48.48392 40 ft 40 kts 46°
2026-05-06 21:48 -1.38296 -48.47988 44 ft 119 kts 46°
2026-05-06 21:48 -1.37587 -48.47295 263 ft 145 kts 44°
2026-05-06 21:49 -1.36868 -48.46622 876 ft 151 kts 41°
2026-05-06 21:49 -1.36065 -48.45897 1444 ft 154 kts 41°
2026-05-06 21:49 -1.35228 -48.45167 1938 ft 166 kts 39°
2026-05-06 21:49 -1.34353 -48.44446 2651 ft 155 kts 39°
2026-05-06 21:50 -1.33541 -48.43798 3369 ft 148 kts 40°
2026-05-06 21:50 -1.32748 -48.43167 3986 ft 147 kts 43°
2026-05-06 21:50 -1.32380 -48.42294 4654 ft 137 kts 103°
2026-05-06 21:50 -1.32836 -48.41501 5275 ft 133 kts 123°
2026-05-06 21:51 -1.33336 -48.40742 5908 ft 128 kts 121°
2026-05-06 21:51 -1.33842 -48.39979 6418 ft 135 kts 121°
2026-05-06 21:51 -1.34384 -48.39170 6703 ft 156 kts 123°
2026-05-06 21:51 -1.35021 -48.38215 6986 ft 166 kts 123°
2026-05-06 21:52 -1.35679 -48.37245 7358 ft 171 kts 123°
2026-05-06 21:52 -1.36347 -48.36248 7740 ft 174 kts 123°
2026-05-06 21:52 -1.37021 -48.35235 8127 ft 176 kts 123°
2026-05-06 21:52 -1.37699 -48.34214 8518 ft 177 kts 123°
2026-05-06 21:53 -1.38381 -48.33189 8912 ft 177 kts 123°
2026-05-06 21:53 -1.39064 -48.32165 9306 ft 177 kts 123°
2026-05-06 21:53 -1.39747 -48.31144 9715 ft 176 kts 123°
2026-05-06 21:53 -1.40427 -48.30131 10089 ft 175 kts 123°
2026-05-06 21:54 -1.41105 -48.29121 10449 ft 174 kts 123°
2026-05-06 21:54 -1.41776 -48.28122 10818 ft 172 kts 123°
2026-05-06 21:54 -1.42479 -48.27156 11195 ft 171 kts 127°
2026-05-06 21:54 -1.43183 -48.26207 11572 ft 169 kts 123°
2026-05-06 21:55 -1.43828 -48.25233 11952 ft 167 kts 122°
2026-05-06 21:55 -1.44456 -48.24267 12335 ft 165 kts 122°
2026-05-06 21:55 -1.45075 -48.23312 12728 ft 162 kts 122°
2026-05-06 21:55 -1.45682 -48.22372 13119 ft 160 kts 122°
2026-05-06 21:56 -1.46274 -48.21456 13480 ft 160 kts 122°
2026-05-06 21:56 -1.46911 -48.20466 13502 ft 179 kts 122°
2026-05-06 21:56 -1.47609 -48.19378 13513 ft 192 kts 122°
2026-05-06 21:56 -1.48345 -48.18229 13517 ft 200 kts 122°
2026-05-06 21:57 -1.49108 -48.17036 13519 ft 206 kts 122°
2026-05-06 21:57 -1.49889 -48.15815 13521 ft 210 kts 122°
2026-05-06 21:57 -1.50681 -48.14574 13526 ft 213 kts 122°
2026-05-06 21:57 -1.51481 -48.13320 13522 ft 215 kts 122°
2026-05-06 21:58 -1.52285 -48.12060 13525 ft 215 kts 122°
2026-05-06 21:58 -1.53092 -48.10796 13522 ft 216 kts 122°
2026-05-06 21:58 -1.53901 -48.09529 13518 ft 217 kts 122°
2026-05-06 21:58 -1.54711 -48.08259 13519 ft 217 kts 122°
2026-05-06 21:59 -1.55523 -48.06985 13524 ft 217 kts 122°
2026-05-06 21:59 -1.56332 -48.05714 13518 ft 217 kts 122°
2026-05-06 21:59 -1.57145 -48.04437 13521 ft 217 kts 122°
2026-05-06 21:59 -1.57957 -48.03165 13522 ft 217 kts 122°
2026-05-06 22:00 -1.58769 -48.01891 13526 ft 217 kts 122°
2026-05-06 22:00 -1.59580 -48.00619 13518 ft 217 kts 122°
2026-05-06 22:00 -1.60392 -47.99344 13522 ft 217 kts 122°
2026-05-06 22:00 -1.61205 -47.98069 13525 ft 217 kts 122°
2026-05-06 22:01 -1.62017 -47.96793 13519 ft 217 kts 122°
2026-05-06 22:01 -1.62829 -47.95519 13524 ft 217 kts 122°
2026-05-06 22:01 -1.63640 -47.94243 13521 ft 218 kts 122°
2026-05-06 22:01 -1.64453 -47.92965 13520 ft 218 kts 122°
2026-05-06 22:02 -1.65262 -47.91690 13521 ft 217 kts 122°
2026-05-06 22:02 -1.66032 -47.90409 13526 ft 217 kts 118°
2026-05-06 22:02 -1.66734 -47.89072 13523 ft 217 kts 116°
2026-05-06 22:02 -1.67409 -47.87719 13526 ft 217 kts 116°
2026-05-06 22:03 -1.68076 -47.86365 13521 ft 217 kts 116°
2026-05-06 22:03 -1.68742 -47.85010 13522 ft 217 kts 116°
2026-05-06 22:03 -1.69407 -47.83654 13516 ft 218 kts 116°
2026-05-06 22:03 -1.70073 -47.82297 13518 ft 217 kts 116°
2026-05-06 22:04 -1.70738 -47.80940 13517 ft 217 kts 116°
2026-05-06 22:04 -1.71403 -47.79582 13521 ft 217 kts 115°
2026-05-06 22:04 -1.72068 -47.78225 13513 ft 217 kts 116°
2026-05-06 22:04 -1.72732 -47.76869 13511 ft 217 kts 116°
2026-05-06 22:05 -1.73397 -47.75513 13518 ft 217 kts 115°
2026-05-06 22:05 -1.74060 -47.74159 13517 ft 217 kts 115°
2026-05-06 22:05 -1.74724 -47.72803 13517 ft 217 kts 116°
2026-05-06 22:05 -1.75387 -47.71449 13519 ft 217 kts 116°
2026-05-06 22:06 -1.76050 -47.70093 13520 ft 217 kts 115°
2026-05-06 22:06 -1.76714 -47.68737 13521 ft 217 kts 116°
2026-05-06 22:06 -1.77378 -47.67379 13518 ft 217 kts 116°
2026-05-06 22:06 -1.78041 -47.66024 13518 ft 217 kts 116°
2026-05-06 22:07 -1.78705 -47.64667 13515 ft 217 kts 115°
2026-05-06 22:07 -1.79369 -47.63310 13513 ft 217 kts 116°
2026-05-06 22:07 -1.80025 -47.61950 13521 ft 217 kts 113°
2026-05-06 22:07 -1.80495 -47.60520 13523 ft 217 kts 102°
2026-05-06 22:08 -1.80737 -47.59030 13522 ft 217 kts 98°
2026-05-06 22:08 -1.81003 -47.57546 13525 ft 217 kts 103°
2026-05-06 22:08 -1.81229 -47.56573 13525 ft 217 kts 103°
2026-05-06 22:08 -1.81594 -47.55110 13526 ft 217 kts 104°
2026-05-06 22:09 -1.81969 -47.53648 13520 ft 217 kts 104°
2026-05-06 22:09 -1.82347 -47.52188 13518 ft 217 kts 104°
2026-05-06 22:09 -1.82728 -47.50725 13526 ft 217 kts 104°
2026-05-06 22:09 -1.83108 -47.49265 13527 ft 217 kts 104°
2026-05-06 22:10 -1.83488 -47.47805 13521 ft 217 kts 104°
2026-05-06 22:10 -1.83869 -47.46344 13527 ft 217 kts 104°
2026-05-06 22:10 -1.84249 -47.44883 13520 ft 217 kts 104°
2026-05-06 22:10 -1.84628 -47.43424 13523 ft 217 kts 104°
2026-05-06 22:11 -1.85007 -47.41966 13522 ft 217 kts 104°
2026-05-06 22:11 -1.85386 -47.40507 13522 ft 217 kts 104°
2026-05-06 22:11 -1.85765 -47.39049 13526 ft 217 kts 104°
2026-05-06 22:11 -1.86145 -47.37592 13519 ft 217 kts 104°
2026-05-06 22:12 -1.86524 -47.36132 13520 ft 217 kts 104°
2026-05-06 22:12 -1.86898 -47.34693 13517 ft 217 kts 104°
2026-05-06 22:12 -1.87278 -47.33234 13529 ft 217 kts 104°
2026-05-06 22:12 -1.87658 -47.31774 13521 ft 217 kts 104°
2026-05-06 22:13 -1.88037 -47.30315 13522 ft 217 kts 104°
2026-05-06 22:13 -1.88416 -47.28856 13524 ft 217 kts 104°
2026-05-06 22:13 -1.88795 -47.27397 13522 ft 217 kts 104°
2026-05-06 22:13 -1.89174 -47.25935 13520 ft 217 kts 104°
2026-05-06 22:14 -1.89553 -47.24474 13522 ft 217 kts 104°
2026-05-06 22:14 -1.89933 -47.23012 13519 ft 217 kts 104°
2026-05-06 22:14 -1.90313 -47.21548 13525 ft 217 kts 104°
2026-05-06 22:14 -1.90691 -47.20091 13525 ft 217 kts 104°
2026-05-06 22:15 -1.91071 -47.18628 13523 ft 217 kts 104°
2026-05-06 22:15 -1.91450 -47.17170 13524 ft 217 kts 104°
2026-05-06 22:15 -1.91830 -47.15709 13528 ft 217 kts 104°
2026-05-06 22:15 -1.92211 -47.14249 13525 ft 217 kts 104°
2026-05-06 22:16 -1.92593 -47.12790 13530 ft 217 kts 104°
2026-05-06 22:16 -1.92974 -47.11329 13525 ft 217 kts 104°
2026-05-06 22:16 -1.93351 -47.09888 13526 ft 217 kts 104°
2026-05-06 22:16 -1.93732 -47.08428 13528 ft 217 kts 104°
2026-05-06 22:17 -1.94114 -47.06968 13526 ft 217 kts 104°
2026-05-06 22:17 -1.94495 -47.05508 13526 ft 217 kts 104°
2026-05-06 22:17 -1.94876 -47.04050 13520 ft 217 kts 104°
2026-05-06 22:17 -1.95257 -47.02591 13526 ft 217 kts 104°
2026-05-06 22:18 -1.95638 -47.01133 13525 ft 217 kts 104°
2026-05-06 22:18 -1.96019 -46.99674 13524 ft 217 kts 104°
2026-05-06 22:18 -1.96400 -46.98216 13523 ft 217 kts 104°
2026-05-06 22:18 -1.96780 -46.96757 13523 ft 217 kts 104°
2026-05-06 22:19 -1.97158 -46.95299 13527 ft 217 kts 104°
2026-05-06 22:19 -1.97537 -46.93838 13521 ft 217 kts 104°
2026-05-06 22:19 -1.97918 -46.92378 13526 ft 217 kts 104°
2026-05-06 22:19 -1.98298 -46.90919 13523 ft 217 kts 104°
2026-05-06 22:20 -1.98679 -46.89458 13527 ft 217 kts 104°
2026-05-06 22:20 -1.99059 -46.87996 13526 ft 217 kts 104°
2026-05-06 22:20 -1.99439 -46.86535 13523 ft 217 kts 104°
2026-05-06 22:20 -1.99820 -46.85076 13528 ft 217 kts 104°
2026-05-06 22:21 -2.00200 -46.83616 13527 ft 217 kts 104°
2026-05-06 22:21 -2.00581 -46.82157 13528 ft 217 kts 104°
2026-05-06 22:21 -2.00962 -46.80697 13524 ft 217 kts 104°
2026-05-06 22:21 -2.01343 -46.79236 13526 ft 217 kts 104°
2026-05-06 22:22 -2.01725 -46.77777 13520 ft 217 kts 104°
2026-05-06 22:22 -2.02103 -46.76337 13523 ft 217 kts 104°
2026-05-06 22:22 -2.02483 -46.74881 13525 ft 217 kts 104°
2026-05-06 22:22 -2.02863 -46.73422 13523 ft 217 kts 104°
2026-05-06 22:23 -2.03244 -46.71964 13530 ft 217 kts 104°
2026-05-06 22:23 -2.03626 -46.70504 13522 ft 217 kts 104°
2026-05-06 22:23 -2.04006 -46.69047 13528 ft 217 kts 104°
2026-05-06 22:23 -2.04386 -46.67589 13525 ft 217 kts 104°
2026-05-06 22:24 -2.04767 -46.66130 13524 ft 217 kts 104°
2026-05-06 22:24 -2.05148 -46.64668 13525 ft 217 kts 104°
2026-05-06 22:24 -2.05529 -46.63209 13521 ft 217 kts 104°
2026-05-06 22:24 -2.05909 -46.61751 13527 ft 217 kts 104°
2026-05-06 22:25 -2.06289 -46.60292 13524 ft 217 kts 104°
2026-05-06 22:25 -2.06669 -46.58832 13533 ft 217 kts 104°
2026-05-06 22:25 -2.07048 -46.57372 13522 ft 217 kts 104°
2026-05-06 22:25 -2.07426 -46.55912 13523 ft 217 kts 104°
2026-05-06 22:26 -2.07803 -46.54453 13523 ft 217 kts 104°
2026-05-06 22:26 -2.08180 -46.52994 13523 ft 217 kts 104°
2026-05-06 22:26 -2.08555 -46.51533 13529 ft 217 kts 104°
2026-05-06 22:26 -2.08929 -46.50074 13522 ft 217 kts 104°
2026-05-06 22:27 -2.09298 -46.48633 13523 ft 217 kts 104°
2026-05-06 22:27 -2.09678 -46.47156 13524 ft 217 kts 104°
2026-05-06 22:27 -2.10050 -46.45716 13523 ft 217 kts 104°
2026-05-06 22:27 -2.10425 -46.44257 13522 ft 217 kts 104°
2026-05-06 22:28 -2.10802 -46.42797 13526 ft 217 kts 104°
2026-05-06 22:28 -2.11179 -46.41339 13528 ft 217 kts 104°
2026-05-06 22:28 -2.11557 -46.39879 13525 ft 217 kts 104°
2026-05-06 22:28 -2.11935 -46.38421 13524 ft 217 kts 104°
2026-05-06 22:29 -2.12312 -46.36963 13522 ft 217 kts 104°
2026-05-06 22:29 -2.12687 -46.35503 13532 ft 216 kts 104°
2026-05-06 22:29 -2.13063 -46.34045 13525 ft 216 kts 104°
2026-05-06 22:29 -2.13437 -46.32590 13526 ft 216 kts 104°
2026-05-06 22:30 -2.13811 -46.31138 13528 ft 216 kts 104°
2026-05-06 22:30 -2.14187 -46.29682 13532 ft 216 kts 104°
2026-05-06 22:30 -2.14561 -46.28230 13522 ft 216 kts 104°
2026-05-06 22:30 -2.14935 -46.26778 13523 ft 216 kts 104°
2026-05-06 22:31 -2.15310 -46.25326 13525 ft 216 kts 104°
2026-05-06 22:31 -2.15684 -46.23873 13525 ft 216 kts 104°
2026-05-06 22:31 -2.16058 -46.22424 13526 ft 216 kts 104°
2026-05-06 22:31 -2.16432 -46.20971 13525 ft 216 kts 104°
2026-05-06 22:32 -2.16807 -46.19518 13529 ft 216 kts 104°
2026-05-06 22:32 -2.17181 -46.18068 13524 ft 216 kts 104°
2026-05-06 22:32 -2.17556 -46.16617 13527 ft 216 kts 104°
2026-05-06 22:32 -2.17930 -46.15166 13526 ft 216 kts 104°
2026-05-06 22:33 -2.18305 -46.13713 13526 ft 216 kts 104°
2026-05-06 22:33 -2.18679 -46.12264 13527 ft 216 kts 104°
2026-05-06 22:33 -2.19052 -46.10813 13529 ft 216 kts 104°
2026-05-06 22:33 -2.19425 -46.09362 13527 ft 216 kts 104°
2026-05-06 22:34 -2.19798 -46.07910 13527 ft 216 kts 104°
2026-05-06 22:34 -2.20170 -46.06460 13525 ft 215 kts 104°
2026-05-06 22:34 -2.20543 -46.05006 13523 ft 216 kts 104°
2026-05-06 22:34 -2.20916 -46.03555 13523 ft 216 kts 104°
2026-05-06 22:35 -2.21288 -46.02105 13529 ft 216 kts 104°
2026-05-06 22:35 -2.21662 -46.00654 13529 ft 215 kts 104°
2026-05-06 22:35 -2.22035 -45.99204 13523 ft 215 kts 104°
2026-05-06 22:35 -2.22404 -45.97773 13521 ft 215 kts 104°
2026-05-06 22:36 -2.22776 -45.96326 13522 ft 215 kts 104°
2026-05-06 22:36 -2.23149 -45.94876 13521 ft 215 kts 104°
2026-05-06 22:36 -2.23521 -45.93428 13523 ft 215 kts 104°
2026-05-06 22:36 -2.23893 -45.91981 13529 ft 215 kts 104°
2026-05-06 22:37 -2.24265 -45.90532 13529 ft 215 kts 104°
2026-05-06 22:37 -2.24638 -45.89084 13525 ft 215 kts 104°
2026-05-06 22:37 -2.25010 -45.87637 13523 ft 215 kts 104°
2026-05-06 22:37 -2.25381 -45.86191 13528 ft 215 kts 104°
2026-05-06 22:38 -2.25753 -45.84741 13523 ft 215 kts 104°
2026-05-06 22:38 -2.26124 -45.83297 13528 ft 215 kts 104°
2026-05-06 22:38 -2.26497 -45.81851 13535 ft 215 kts 104°
2026-05-06 22:38 -2.26869 -45.80403 13531 ft 215 kts 104°
2026-05-06 22:39 -2.27240 -45.78958 13527 ft 215 kts 104°
2026-05-06 22:39 -2.27613 -45.77511 13528 ft 215 kts 104°
2026-05-06 22:39 -2.27984 -45.76066 13525 ft 215 kts 104°
2026-05-06 22:39 -2.28356 -45.74620 13527 ft 215 kts 104°
2026-05-06 22:40 -2.28728 -45.73174 13531 ft 215 kts 104°
2026-05-06 22:40 -2.29100 -45.71731 13525 ft 215 kts 104°
2026-05-06 22:40 -2.29471 -45.70287 13523 ft 214 kts 104°
2026-05-06 22:40 -2.29843 -45.68842 13523 ft 214 kts 104°
2026-05-06 22:41 -2.30586 -45.65954 13529 ft 215 kts 104°
2026-05-06 22:41 -2.30958 -45.64507 13531 ft 215 kts 104°
2026-05-06 22:41 -2.31329 -45.63063 13528 ft 214 kts 104°
2026-05-06 22:42 -2.31701 -45.61618 13526 ft 215 kts 104°
2026-05-06 22:42 -2.32073 -45.60174 13523 ft 215 kts 104°
2026-05-06 22:42 -2.32444 -45.58729 13529 ft 215 kts 104°
2026-05-06 22:42 -2.32815 -45.57284 13530 ft 215 kts 104°
2026-05-06 22:43 -2.33187 -45.55837 13528 ft 215 kts 104°
2026-05-06 22:43 -2.33559 -45.54391 13529 ft 215 kts 104°
2026-05-06 22:43 -2.33931 -45.52946 13526 ft 215 kts 104°
2026-05-06 22:43 -2.34302 -45.51499 13528 ft 215 kts 104°
2026-05-06 22:44 -2.34673 -45.50055 13526 ft 215 kts 104°
2026-05-06 22:44 -2.35044 -45.48609 13522 ft 215 kts 104°
2026-05-06 22:44 -2.35416 -45.47161 13524 ft 215 kts 104°
2026-05-06 22:44 -2.35781 -45.45736 13530 ft 215 kts 104°
2026-05-06 22:45 -2.36152 -45.44290 13520 ft 215 kts 104°
2026-05-06 22:45 -2.36523 -45.42844 13525 ft 215 kts 104°
2026-05-06 22:45 -2.36894 -45.41400 13531 ft 215 kts 104°
2026-05-06 22:45 -2.37264 -45.39954 13529 ft 215 kts 104°
2026-05-06 22:46 -2.37635 -45.38507 13527 ft 215 kts 104°
2026-05-06 22:46 -2.38006 -45.37063 13524 ft 215 kts 104°
2026-05-06 22:46 -2.38376 -45.35617 13528 ft 214 kts 104°
2026-05-06 22:46 -2.38746 -45.34175 13524 ft 214 kts 104°
2026-05-06 22:47 -2.39117 -45.32729 13511 ft 215 kts 104°
2026-05-06 22:47 -2.39490 -45.31275 13478 ft 216 kts 104°
2026-05-06 22:47 -2.39863 -45.29823 13478 ft 215 kts 104°
2026-05-06 22:47 -2.40234 -45.28375 13478 ft 215 kts 104°
2026-05-06 22:48 -2.40605 -45.26928 13475 ft 215 kts 104°
2026-05-06 22:48 -2.40975 -45.25482 13477 ft 214 kts 104°
2026-05-06 22:48 -2.41344 -45.24043 13478 ft 214 kts 104°
2026-05-06 22:48 -2.41715 -45.22597 13480 ft 214 kts 104°
2026-05-06 22:49 -2.42085 -45.21155 13478 ft 214 kts 104°
2026-05-06 22:49 -2.42455 -45.19714 13478 ft 214 kts 104°
2026-05-06 22:49 -2.42824 -45.18274 13477 ft 214 kts 104°
2026-05-06 22:49 -2.43194 -45.16832 13477 ft 214 kts 104°
2026-05-06 22:50 -2.43563 -45.15391 13475 ft 214 kts 104°
2026-05-06 22:50 -2.43933 -45.13949 13476 ft 214 kts 104°
2026-05-06 22:50 -2.44303 -45.12508 13478 ft 214 kts 104°
2026-05-06 22:50 -2.44673 -45.11065 13480 ft 214 kts 104°
2026-05-06 22:51 -2.45043 -45.09623 13479 ft 214 kts 104°
2026-05-06 22:51 -2.45413 -45.08179 13477 ft 214 kts 104°
2026-05-06 22:51 -2.45778 -45.06755 13476 ft 214 kts 104°
2026-05-06 22:51 -2.46149 -45.05310 13477 ft 214 kts 104°
2026-05-06 22:52 -2.46520 -45.03867 13476 ft 214 kts 104°
2026-05-06 22:52 -2.46890 -45.02424 13478 ft 214 kts 104°
2026-05-06 22:52 -2.47259 -45.00981 13479 ft 214 kts 104°
2026-05-06 22:52 -2.47629 -44.99540 13477 ft 214 kts 104°
2026-05-06 22:53 -2.47999 -44.98096 13479 ft 214 kts 104°
2026-05-06 22:53 -2.48368 -44.96652 13478 ft 214 kts 104°
2026-05-06 22:53 -2.48737 -44.95209 13480 ft 214 kts 104°
2026-05-06 22:53 -2.49107 -44.93765 13477 ft 214 kts 104°
2026-05-06 22:54 -2.49476 -44.92320 13479 ft 214 kts 104°
2026-05-06 22:54 -2.49845 -44.90877 13478 ft 214 kts 104°
2026-05-06 22:54 -2.50215 -44.89431 13479 ft 214 kts 104°
2026-05-06 22:54 -2.50586 -44.87986 13478 ft 214 kts 104°
2026-05-06 22:55 -2.50956 -44.86541 13480 ft 214 kts 104°
2026-05-06 22:55 -2.51326 -44.85098 13480 ft 215 kts 104°
2026-05-06 22:55 -2.51694 -44.83660 13630 ft 207 kts 104°
2026-05-06 22:55 -2.52037 -44.82318 13997 ft 192 kts 104°
2026-05-06 22:56 -2.52253 -44.81474 14161 ft 190 kts 104°
2026-05-06 22:56 -2.52712 -44.79675 13879 ft 205 kts 104°
2026-05-06 22:56 -2.52944 -44.78769 13656 ft 202 kts 104°
2026-05-06 22:56 -2.53386 -44.77037 13076 ft 179 kts 104°
2026-05-06 22:57 -2.53594 -44.76228 12785 ft 180 kts 104°
2026-05-06 22:57 -2.53909 -44.74995 12362 ft 184 kts 104°
2026-05-06 22:57 -2.54229 -44.73744 11906 ft 188 kts 104°
2026-05-06 22:57 -2.54558 -44.72462 11405 ft 192 kts 104°
2026-05-06 22:58 -2.54891 -44.71159 10909 ft 194 kts 104°
2026-05-06 22:58 -2.55227 -44.69849 10428 ft 195 kts 104°
2026-05-06 22:58 -2.55560 -44.68551 9957 ft 195 kts 104°
2026-05-06 22:58 -2.55902 -44.67219 9432 ft 195 kts 104°
2026-05-06 22:59 -2.56233 -44.65920 8920 ft 195 kts 104°
2026-05-06 22:59 -2.56566 -44.64604 8406 ft 195 kts 104°
2026-05-06 22:59 -2.56888 -44.63324 7893 ft 182 kts 105°
2026-05-06 22:59 -2.57183 -44.62138 7396 ft 171 kts 105°
2026-05-06 23:00 -2.57485 -44.60916 6906 ft 201 kts 105°
2026-05-06 23:00 -2.57849 -44.59454 6429 ft 228 kts 105°
2026-05-06 23:00 -2.58245 -44.57863 5928 ft 242 kts 105°
2026-05-06 23:00 -2.58653 -44.56221 5431 ft 233 kts 105°
2026-05-06 23:01 -2.59005 -44.54799 4934 ft 192 kts 105°
2026-05-06 23:01 -2.59302 -44.53585 4418 ft 170 kts 105°
2026-05-06 23:01 -2.59575 -44.52478 3899 ft 160 kts 105°
2026-05-06 23:01 -2.59841 -44.51423 3443 ft 152 kts 104°
2026-05-06 23:02 -2.60101 -44.50421 3049 ft 146 kts 104°
2026-05-06 23:02 -2.60376 -44.49461 2650 ft 142 kts 105°
2026-05-06 23:02 -2.60667 -44.48536 2375 ft 135 kts 104°
2026-05-06 23:02 -2.60944 -44.47696 2302 ft 119 kts 105°
2026-05-06 23:03 -2.61191 -44.46960 2307 ft 105 kts 105°
2026-05-06 23:03 -2.61410 -44.46318 2353 ft 91 kts 104°
2026-05-06 23:03 -2.61710 -44.45815 2399 ft 80 kts 132°
2026-05-06 23:03 -2.62018 -44.45494 539 ft 98 kts 136°
2026-05-06 23:04 -2.62076 -44.45444 -1 ft 0 kts 252°
2026-05-06 23:04 -2.62086 -44.45485 -8 ft 9 kts 249°
2026-05-06 23:05 -2.62115 -44.45545 -8 ft 10 kts 225°
2026-05-06 23:05 -2.62178 -44.45546 -8 ft 10 kts 144°
2026-05-06 23:05 -2.62219 -44.45493 -8 ft 10 kts 121°
2026-05-06 23:05 -2.62250 -44.45432 -7 ft 10 kts 114°
2026-05-06 23:06 -2.62278 -44.45369 -7 ft 10 kts 112°
2026-05-06 23:06 -2.62303 -44.45305 -7 ft 10 kts 111°
2026-05-06 23:06 -2.62328 -44.45241 -7 ft 10 kts 110°
2026-05-06 23:06 -2.62347 -44.45186 -7 ft 6 kts 109°
2026-05-06 23:07 -2.62363 -44.45139 -7 ft 10 kts 106°
2026-05-06 23:07 -2.62377 -44.45078 -7 ft 10 kts 102°